Flag for Switzerland Weather past 2 weeks in Muttenz, Basel-Land, Switzerland

Now
61 °F

Light rain. Overcast.


Feels Like: 61 °F
Forecast: 58 / 66 °F
Wind: 3 mph from South

Location: Bale-Mulhouse

Current Time: Jul 29, 2014 at 12:00:13 AM

Latest Report: Jul 28, 2014 at 11:30 PM


Visibility: N/A

Pressure: 29.89 "Hg

Humidity: 88%

Dew point: 57 °F

Location of MuttenzLocation

Historic Weather in Muttenz — Graph

°F

Muttenz temperature yesterday

Maximum temperature yesterday: 79 °F (at 1:30 PM)
Minimum temperature yesterday: 61 °F (at 9:00 PM)
Average temperature yesterday: 68 °F

Past Weeks' High & Low Weather Summary

 TemperatureHumidityPressure
High93 °F (Jul 18, 4:35 PM)100% (Jul 15, 4:00 AM)30.18 "Hg (Jul 15, 4:00 AM)
Low54 °F (Jul 15, 5:00 AM)20% (Jul 18, 5:00 PM)29.83 "Hg (Jul 19, 7:00 PM)
Average69 °F77%29.99 "Hg
* Reported Jul 13 10:00 PM — Jul 28 10:30 PM, Muttenz, Weather by CustomWeather, © 2014

Note: Actual official high and low records may vary slightly from our data, if they occured in-between our weather recording intervals... More about our weather records

Advertising

Muttenz weather history for previous 24 hours

 ConditionsComfort  
Time TempWeatherWind HumidityBarometerVisibility
10:30 PM
Jul 28
61 °FLight rain. Overcast.2 mph94%29.89 "HgN/A
10:00 PM61 °FLight rain. Overcast.3 mph88%29.89 "HgN/A
9:30 PM61 °FLight rain. More clouds than sun.No wind94%29.89 "HgN/A
9:00 PM61 °FLight rain. Overcast.2 mph88%29.89 "HgN/A
8:00 PM63 °FLight rain. Partly sunny.10 mph88%29.86 "HgN/A
7:30 PM63 °FLight rain. Partly sunny.6 mph88%29.86 "HgN/A
7:00 PM64 °FBroken clouds.7 mph83%29.86 "HgN/A
6:30 PM64 °FBroken clouds.10 mph83%29.86 "HgN/A
6:00 PM66 °FBroken clouds.9 mph78%29.86 "HgN/A
5:30 PM68 °FBroken clouds.10 mph73%29.86 "HgN/A
5:00 PM68 °FBroken clouds.10 mph78%29.86 "HgN/A
4:30 PM70 °FBroken clouds.12 mph78%29.86 "HgN/A
4:00 PM68 °FThundershowers. Scattered clouds.10 mph83%29.86 "HgN/A
3:30 PM66 °FThunderstorms. Scattered clouds.12 mph88%29.86 "Hg5 mi
3:00 PM73 °FThundershowers. Broken clouds.9 mph65%29.83 "HgN/A
2:30 PM73 °FThundershowers. Scattered clouds.10 mph74%29.83 "HgN/A
2:00 PM79 °FScattered showers. Scattered clouds.5 mph58%29.83 "HgN/A
1:30 PM79 °FScattered showers. Scattered clouds.3 mph54%29.86 "HgN/A
1:00 PM77 °FScattered showers. Scattered clouds.3 mph61%29.86 "HgN/A
12:35 PM77 °FScattered clouds.2 mph57%29.86 "HgN/A
12:00 PM77 °FScattered clouds.3 mph61%29.86 "HgN/A
11:30 AM75 °FPartly sunny.No wind61%29.89 "HgN/A
11:00 AM73 °FPartly sunny.2 mph69%29.89 "HgN/A
10:30 AM72 °FPartly sunny.3 mph73%29.89 "HgN/A
10:00 AM72 °FSunny.2 mph73%29.92 "Hg10 mi
9:30 AM70 °FPassing clouds.5 mph78%29.92 "HgN/A
9:00 AM68 °FPassing clouds.3 mph83%29.92 "HgN/A
8:30 AM68 °FPassing clouds.5 mph78%29.92 "HgN/A
8:00 AM66 °FSunny.6 mph88%29.92 "Hg10 mi
7:30 AM64 °FScattered clouds.5 mph94%29.92 "HgN/A
7:00 AM64 °FPartly cloudy.3 mph88%29.92 "HgN/A
6:30 AM64 °FPassing clouds.3 mph88%29.92 "HgN/A
6:00 AM64 °FPassing clouds.5 mph88%29.92 "HgN/A
5:30 AM64 °FPassing clouds.5 mph88%29.92 "HgN/A
5:00 AM64 °FPartly cloudy.5 mph88%29.92 "HgN/A
4:30 AM64 °FPassing clouds.3 mph94%29.92 "HgN/A
4:00 AM66 °FPartly cloudy.3 mph88%29.95 "HgN/A
3:30 AM66 °FClear.6 mph88%29.95 "HgN/A
3:00 AM66 °FClear.3 mph88%29.98 "HgN/A
2:30 AM66 °FClear.5 mph88%29.98 "HgN/A
2:00 AM68 °FClear.5 mph83%29.98 "HgN/A
1:30 AM68 °FClear.5 mph83%29.98 "HgN/A
1:00 AM68 °FClear.3 mph83%30.01 "HgN/A
12:30 AM68 °FClear.3 mph83%30.01 "HgN/A
12:00 AM68 °FClear.2 mph83%30.01 "Hg10 mi
Weather by CustomWeather, © 2014

See weather overviewHow to use our weather pages